Temp
70 70 70 70 68 66 66 65 68 68 69 67 66 65 65 66 67 69 71 71 70 71 69 68 69 69 69 70 70 69 68 68 68 68 67 68 70 69 69 70 70 72 72
67 69 68 68 67 67 68 67 68 67 68 69 67 66 65 66 67 69 69 70 70 70 70 69 69 70 69 70 70 70 68 68 68 66 64 62 65 66 68 68 69 69 70
67 68 68 67 68 68 68 67 67 67 68 70 66 65 66 65 65 66 69 70 71 71 70 71 70 70 69 69 70 70 69 67 67 68 65 61 60 62 67 68 68 69 69
70 68 68 66 68 69 69 68 68 69 71 69 67 66 64 63 64 67 68 70 72 71 72 71 71 70 71 70 70 70 69 67 66 66 68 66 65 61 59 67 67 68 68
69 68 68 69 70 72 70 70 69 71 70 68 68 67 66 66 67 67 68 68 69 72 73 71 70 69 69 69 69 69 68 68 67 66 66 65 65 64 63 62 64 66 67
69 70 70 70 70 72 72 71 68 71 70 68 68 70 69 69 67 66 65 66 67 68 70 71 69 70 68 69 68 68 69 68 68 67 66 65 64 62 62 63 63 63 65
71 70 69 69 69 70 71 71 70 69 70 70 70 70 69 69 67 66 65 66 66 66 67 69 69 69 69 69 68 68 68 67 66 66 66 67 66 65 64 63 64 63 64
73 72 71 70 71 72 71 72 70 69 70 70 70 70 69 68 66 66 65 66 66 66 67 68 68 69 69 68 68 67 67 66 66 66 66 66 66 66 65 64 64 62 63
73 72 72 70 70 72 72 71 70 70 69 70 69 70 69 68 66 66 66 66 66 68 67 68 68 68 68 68 67 65 65 65 65 65 66 66 66 67 66 65 69 64 60
73 72 71 72 72 71 72 71 71 70 69 69 68 70 69 68 67 66 66 66 66 67 67 67 67 67 66 66 65 64 65 64 64 64 65 65 65 66 66 66 65 66 64
71 73 73 73 73 73 71 71 70 69 68 68 68 69 68 69 67 66 66 66 66 66 66 66 66 66 65 64 63 63 63 63 63 63 64 64 64 64 65 65 66 64 63
70 71 72 71 70 70 70 70 69 69 68 68 69 69 68 68 68 66 66 66 66 66 66 66 65 65 64 63 63 63 62 62 61 61 62 63 65 62 62 62 63 62 62
69 69 69 69 68 69 69 69 69 69 68 68 68 68 67 67 67 67 66 66 66 66 65 65 65 64 64 63 62 61 60 60 60 60 61 62 62 60 59 59 60 61 63
70 68 67 68 68 68 68 69 69 69 67 68 67 67 66 66 66 67 67 66 66 65 64 64 64 64 64 63 61 60 59 59 59 59 60 61 61 59 58 58 61 62 61
68 68 68 67 67 67 68 68 69 68 67 67 67 67 67 67 67 67 67 67 66 66 64 63 62 62 64 64 60 59 58 58 58 58 60 61 64 63 61 58 57 61 60
70 70 68 68 66 67 68 68 69 68 67 67 66 67 67 67 67 67 68 67 66 64 64 62 62 61 65 61 62 61 58 58 57 57 57 58 62 62 62 62 61 59 57
70 69 68 68 67 68 68 68 68 68 67 67 67 68 68 66 66 67 66 66 65 64 63 62 61 60 60 59 60 62 59 58 57 57 56 59 60 59 59 61 62 61 62
71 70 68 68 67 68 68 68 68 67 67 66 66 68 67 66 66 66 66 66 65 65 63 61 60 59 59 58 58 61 59 58 58 57 56 55 55 55 56 55 54 54 55
70 70 71 69 66 68 68 68 67 67 66 66 66 66 66 65 65 64 64 64 64 65 63 62 61 61 58 56 56 59 57 56 56 56 55 55 55 57 57 55 53 52 52
70 70 69 68 67 66 68 67 66 66 65 64 65 65 64 64 64 63 62 62 64 64 65 63 62 60 62 54 54 58 57 55 54 54 54 58 56 55 55 54 53 52 50
66 67 67 66 66 67 67 65 64 64 64 64 63 63 63 62 63 63 62 61 62 64 63 64 63 61 59 59 52 55 59 58 54 53 53 53 54 52 52 53 54 54 52
65 66 65 64 65 66 65 62 63 62 63 62 62 61 62 62 63 62 62 61 61 61 64 63 62 62 61 56 52 52 56 57 57 55 54 54 52 50 49 51 52 51 54
64 64 64 64 64 64 65 64 64 63 63 61 62 63 61 61 60 61 62 61 60 61 63 63 63 62 62 59 52 51 53 55 58 57 55 53 49 49 50 52 51 51 52
63 64 64 63 63 64 65 64 65 65 65 63 62 62 62 61 60 59 59 59 62 62 63 63 63 63 62 59 55 55 56 55 58 57 55 54 53 53 53 53 52 52 50
62 63 63 62 61 61 61 61 62 62 62 62 62 62 62 61 59 55 56 56 56 55 57 61 63 63 62 61 57 55 57 58 57 53 52 51 51 51 51 50 50 50 49
62 61 61 61 60 60 60 60 60 61 60 59 58 58 58 57 56 56 55 50 49 46 44 43 46 60 53 49 50 48 49 47 48 54 53 53 52 52 52 51 50 50 53
MSLP
1011.83 1012.48 1012.57 1012.93 1013.25 1013.30 1013.96 1013.93 1013.79 1013.97 1014.03 1014.26 1014.43 1014.20 1014.30 1014.04 1014.12 1013.99 1014.25 1014.38 1014.38 1014.39 1014.57 1014.72 1014.93 1015.02 1015.26 1015.26 1015.47 1015.68 1015.93 1016.00 1016.00 1016.21 1016.04 1015.78 1015.59 1015.86 1015.94 1015.70 1015.70 1015.53 1015.54
1011.68 1012.26 1012.72 1013.18 1013.15 1013.26 1013.68 1013.75 1013.83 1013.99 1014.10 1014.27 1014.46 1014.42 1014.48 1014.63 1014.20 1014.29 1014.26 1014.41 1014.50 1014.23 1014.27 1014.55 1014.66 1014.82 1014.89 1015.04 1014.96 1015.25 1015.56 1015.66 1015.58 1016.09 1016.30 1016.29 1016.39 1016.24 1016.24 1015.96 1015.84 1015.72 1015.48
1010.67 1011.95 1012.82 1013.26 1013.53 1013.32 1013.56 1013.59 1013.52 1013.43 1013.72 1014.27 1014.63 1014.78 1014.49 1014.69 1014.60 1014.46 1014.40 1014.27 1014.35 1014.20 1014.08 1013.98 1014.23 1014.35 1014.46 1014.55 1014.64 1014.69 1014.90 1015.26 1015.53 1015.57 1015.81 1016.30 1016.46 1016.62 1016.62 1016.47 1016.24 1016.07 1016.12
1011.73 1012.24 1012.61 1013.08 1013.36 1013.56 1013.21 1013.01 1013.00 1013.24 1013.66 1013.99 1014.24 1014.60 1014.84 1014.59 1014.45 1014.20 1014.23 1014.09 1013.98 1014.01 1013.86 1013.72 1013.80 1014.00 1014.07 1014.18 1014.41 1014.46 1014.55 1014.83 1015.18 1015.35 1015.36 1015.53 1015.82 1016.39 1016.85 1016.76 1016.73 1016.59 1016.64
1012.48 1012.45 1012.65 1012.83 1012.82 1013.32 1013.38 1013.09 1013.03 1013.16 1013.33 1013.52 1013.77 1014.23 1014.31 1014.40 1014.16 1014.16 1014.13 1014.16 1014.12 1013.93 1013.68 1013.94 1013.83 1013.93 1013.95 1013.92 1014.01 1014.19 1014.36 1014.58 1014.86 1015.04 1015.26 1015.58 1015.82 1016.05 1016.44 1016.83 1017.02 1017.04 1017.00
1012.92 1012.73 1012.52 1012.24 1011.75 1012.25 1012.72 1013.03 1013.17 1013.10 1012.93 1013.37 1013.91 1013.87 1014.02 1014.37 1014.57 1014.41 1014.38 1014.44 1014.29 1014.20 1014.11 1014.08 1014.03 1014.04 1014.12 1014.05 1014.10 1014.04 1014.15 1014.13 1014.42 1014.59 1014.83 1015.05 1015.44 1015.83 1016.13 1016.56 1016.93 1017.22 1017.45
1011.50 1011.28 1011.61 1011.92 1011.60 1011.69 1011.84 1012.35 1012.85 1012.82 1012.75 1012.86 1013.50 1013.88 1014.01 1014.04 1014.52 1014.49 1014.35 1014.50 1014.57 1014.48 1014.52 1014.46 1014.38 1014.23 1014.10 1014.19 1014.23 1014.33 1014.25 1014.25 1014.33 1014.37 1014.44 1014.61 1014.84 1015.06 1015.50 1015.90 1016.67 1017.14 1017.44
1010.10 1011.21 1011.70 1011.66 1011.64 1011.09 1011.69 1011.91 1012.30 1012.46 1012.83 1012.96 1013.11 1013.33 1013.99 1014.20 1014.55 1014.25 1014.41 1014.30 1014.62 1014.75 1014.80 1014.73 1014.51 1014.38 1014.15 1014.31 1014.35 1014.44 1014.50 1014.47 1014.44 1014.36 1014.40 1014.40 1014.54 1014.74 1015.04 1015.47 1016.07 1016.91 1017.44
1009.79 1010.58 1010.80 1010.98 1011.19 1011.10 1011.45 1011.93 1012.14 1012.44 1012.72 1012.62 1012.82 1013.29 1013.93 1014.44 1014.46 1014.43 1014.52 1014.50 1014.41 1014.59 1014.93 1014.97 1014.74 1014.58 1014.65 1014.82 1014.81 1014.84 1014.88 1014.68 1014.44 1014.50 1014.38 1014.27 1014.42 1014.58 1014.89 1015.05 1015.33 1015.98 1017.17
1009.53 1009.90 1010.19 1010.42 1010.79 1010.70 1011.06 1011.70 1012.08 1012.24 1012.44 1012.71 1013.01 1013.23 1013.62 1014.29 1014.57 1014.66 1014.79 1014.78 1014.50 1014.54 1014.92 1015.11 1015.12 1015.02 1015.15 1015.07 1015.09 1015.24 1015.15 1014.94 1014.85 1014.81 1014.63 1014.53 1014.46 1014.61 1014.80 1014.99 1015.30 1015.70 1016.23
1009.36 1009.38 1009.42 1009.53 1010.22 1010.40 1010.84 1011.17 1011.77 1012.27 1012.42 1012.78 1013.07 1013.19 1013.63 1014.25 1014.58 1014.79 1014.85 1014.88 1014.67 1014.69 1014.79 1015.27 1015.38 1015.29 1015.25 1015.24 1015.18 1015.41 1015.48 1015.48 1015.36 1015.14 1014.97 1014.85 1014.81 1014.96 1015.00 1015.24 1015.59 1016.00 1016.42
1009.20 1009.04 1009.48 1009.63 1009.96 1010.58 1010.72 1010.97 1011.60 1012.04 1012.20 1012.60 1013.08 1013.20 1013.42 1013.96 1014.57 1014.83 1014.87 1014.91 1014.88 1014.91 1014.90 1015.30 1015.40 1015.47 1015.32 1015.54 1015.46 1015.64 1015.82 1015.91 1016.00 1015.64 1015.20 1015.24 1015.17 1015.28 1015.40 1015.55 1016.01 1016.33 1016.68
1009.30 1009.36 1009.53 1009.93 1010.31 1010.57 1010.67 1011.01 1011.62 1011.88 1012.21 1012.51 1012.87 1013.35 1013.41 1013.77 1014.29 1014.71 1015.00 1015.14 1014.86 1014.99 1015.13 1015.30 1015.61 1015.73 1015.69 1015.90 1015.90 1015.86 1016.11 1016.14 1016.20 1016.00 1015.59 1015.56 1015.62 1015.80 1016.00 1016.21 1016.63 1016.89 1016.99
1009.21 1009.27 1009.73 1010.11 1010.20 1010.61 1010.78 1010.96 1011.33 1011.79 1012.08 1012.55 1012.95 1013.20 1013.57 1013.67 1014.09 1014.47 1014.69 1014.90 1015.02 1015.24 1015.37 1015.33 1015.71 1015.98 1015.93 1016.27 1016.19 1016.14 1016.27 1016.39 1016.51 1016.39 1016.14 1016.14 1016.04 1016.10 1016.33 1016.62 1016.88 1017.09 1017.50
1009.17 1009.33 1009.27 1009.67 1010.05 1010.68 1011.08 1011.18 1011.18 1011.91 1012.23 1012.55 1012.84 1013.14 1013.23 1013.50 1013.86 1014.18 1014.59 1014.79 1015.20 1015.18 1015.32 1015.57 1015.73 1015.96 1016.10 1016.56 1016.52 1016.43 1016.54 1016.57 1016.82 1016.92 1016.63 1016.54 1016.48 1016.35 1016.45 1016.67 1017.13 1017.34 1017.85
1008.80 1009.07 1009.17 1009.43 1009.97 1010.49 1010.97 1011.04 1011.22 1011.97 1012.43 1012.78 1012.73 1012.96 1013.32 1013.63 1013.96 1014.00 1014.37 1014.86 1015.34 1015.45 1015.44 1015.79 1015.84 1015.82 1015.89 1016.38 1016.59 1016.69 1017.01 1017.15 1017.25 1017.22 1017.14 1017.03 1016.89 1016.81 1016.91 1017.18 1017.56 1017.81 1018.06
1008.67 1008.74 1008.97 1009.41 1009.76 1010.47 1010.74 1011.14 1011.41 1011.95 1012.67 1012.79 1013.06 1013.26 1013.64 1013.72 1013.98 1014.33 1014.75 1014.88 1015.23 1015.75 1016.03 1015.86 1016.02 1016.02 1016.05 1016.31 1016.51 1016.69 1016.91 1017.30 1017.81 1017.74 1017.60 1017.48 1017.51 1017.40 1017.45 1017.59 1017.81 1018.06 1018.30
1008.15 1008.45 1008.70 1009.20 1009.81 1010.24 1010.71 1011.09 1011.52 1012.09 1012.31 1012.99 1012.95 1013.25 1013.84 1013.89 1014.12 1014.42 1014.44 1014.49 1014.58 1015.09 1015.73 1016.28 1016.15 1016.09 1016.25 1016.19 1016.39 1016.70 1017.10 1017.45 1017.89 1017.94 1018.00 1017.98 1018.04 1017.93 1017.96 1018.13 1018.30 1018.52 1018.65
1007.45 1007.99 1008.66 1009.39 1009.82 1010.04 1010.49 1010.80 1011.34 1012.05 1012.39 1012.87 1013.08 1013.36 1013.51 1013.82 1014.08 1014.22 1014.20 1014.36 1014.69 1014.71 1015.19 1015.60 1016.33 1016.32 1016.26 1016.24 1016.42 1016.72 1017.26 1017.74 1017.96 1018.05 1018.20 1018.27 1018.32 1018.33 1018.22 1018.32 1018.81 1019.05 1019.06
1007.30 1007.59 1008.50 1009.29 1010.10 1010.24 1010.32 1011.01 1011.71 1012.14 1012.49 1012.61 1012.85 1013.35 1013.84 1013.91 1014.07 1014.16 1014.21 1014.39 1014.55 1014.70 1014.96 1015.34 1016.03 1016.45 1016.26 1016.12 1016.42 1016.74 1017.19 1017.85 1018.06 1018.04 1018.31 1018.46 1018.52 1018.55 1018.62 1018.46 1018.63 1018.92 1019.33
1007.13 1007.67 1008.43 1009.05 1009.92 1010.54 1010.53 1011.53 1012.02 1012.22 1012.47 1012.69 1013.27 1013.66 1013.95 1014.42 1014.42 1014.37 1014.44 1014.48 1014.70 1014.78 1014.94 1015.16 1015.29 1015.96 1016.33 1016.20 1016.16 1016.50 1016.90 1017.40 1018.03 1018.26 1018.35 1018.44 1018.40 1018.36 1018.47 1018.49 1018.62 1018.78 1018.99
1008.05 1008.25 1008.60 1008.92 1010.02 1010.87 1010.95 1012.01 1012.45 1012.73 1012.53 1013.22 1013.72 1014.05 1014.00 1014.28 1014.71 1014.43 1014.46 1014.50 1014.71 1014.85 1014.66 1014.61 1014.83 1015.50 1015.75 1016.17 1016.19 1016.21 1016.46 1016.94 1017.47 1017.81 1017.93 1018.22 1018.26 1018.27 1018.35 1018.46 1018.64 1018.86 1019.14
1009.20 1009.92 1008.45 1008.98 1010.14 1010.85 1011.61 1012.36 1012.48 1012.53 1012.96 1013.84 1014.51 1013.98 1014.19 1014.47 1014.92 1014.86 1014.82 1014.75 1014.60 1014.68 1014.88 1014.97 1014.63 1014.72 1015.07 1015.74 1016.09 1016.23 1016.33 1016.65 1016.98 1017.09 1017.38 1017.85 1018.03 1018.17 1018.23 1018.40 1018.39 1018.64 1019.06
1010.32 1010.33 1010.39 1008.98 1010.32 1011.25 1012.08 1012.33 1012.59 1012.72 1013.46 1014.16 1014.29 1014.25 1014.27 1014.34 1014.64 1015.02 1015.16 1015.06 1014.81 1014.69 1014.69 1014.68 1014.68 1014.67 1014.77 1015.26 1015.74 1015.97 1016.21 1016.28 1016.42 1016.66 1017.21 1017.65 1017.91 1018.07 1018.22 1018.43 1018.50 1018.61 1018.82
1010.19 1011.18 1009.85 1010.41 1010.44 1011.49 1012.07 1012.56 1012.95 1013.21 1013.61 1013.69 1013.79 1013.88 1014.19 1014.35 1014.59 1015.00 1015.01 1015.00 1014.97 1014.96 1014.82 1014.38 1014.24 1014.16 1014.17 1014.37 1014.56 1015.06 1015.75 1015.75 1015.95 1016.66 1017.28 1017.65 1017.88 1018.05 1018.25 1018.32 1018.36 1018.54 1018.67
1010.87 1011.08 1009.39 1010.86 1011.26 1011.84 1012.31 1012.73 1012.92 1013.12 1013.16 1013.71 1013.48 1013.41 1013.98 1014.62 1014.89 1014.98 1015.01 1014.72 1014.57 1014.60 1014.52 1014.48 1014.62 1013.95 1013.71 1013.80 1014.15 1014.50 1015.08 1015.40 1015.64 1016.34 1016.66 1016.90 1017.13 1017.35 1017.61 1017.87 1018.14 1018.30 1018.42
Wind_Speed
7 6 9 1 5 4 4 6 5 3 3 2 2 2 2 1 2 2 2 4 3 4 4 3 4 4 4 5 5 3 4 3 4 1 2 2 2 3 3 2 3 5 5
8 8 7 5 6 5 6 6 6 6 3 2 1 0 2 2 1 1 3 4 5 5 4 5 5 5 4 5 4 5 3 2 3 3 1 1 3 3 5 4 1 2 2
12 9 6 4 4 5 6 6 6 6 4 3 3 2 3 1 1 0 2 3 5 5 5 5 5 4 3 4 3 4 5 3 2 4 4 1 3 2 3 5 4 4 4
6 5 3 4 4 5 4 4 5 6 5 7 4 4 3 3 2 2 2 0 2 3 3 3 2 4 3 5 3 3 2 3 4 1 3 1 3 3 1 2 3 4 4
4 6 5 5 3 5 6 6 5 5 5 5 5 4 3 2 2 1 3 2 3 4 3 0 2 3 2 3 5 4 4 3 3 3 2 2 1 2 2 2 2 2 4
6 5 5 6 5 5 6 6 7 7 8 8 6 5 6 4 2 2 3 1 1 3 4 4 2 1 1 3 3 3 4 4 3 3 3 3 3 3 3 3 3 2 2
14 14 13 11 7 8 8 6 7 5 6 6 6 6 3 3 5 4 3 4 1 1 2 2 2 1 1 1 2 2 3 2 1 2 3 3 3 3 3 4 3 3 2
12 10 11 8 8 9 7 7 7 5 4 6 6 5 6 3 3 4 4 4 3 1 2 2 0 1 3 3 3 3 2 3 2 2 1 3 3 3 3 4 6 4 2
10 10 8 8 8 9 9 8 6 6 6 6 5 6 6 4 5 4 3 3 4 3 1 2 3 4 4 3 3 2 2 3 3 2 2 2 1 3 3 3 8 5 4
7 8 8 8 7 7 6 7 6 7 6 5 5 5 6 4 4 4 5 4 3 2 3 3 2 4 3 3 4 2 3 4 3 3 3 2 2 2 3 5 4 3 5
6 10 7 7 7 6 7 8 7 6 6 5 5 6 5 5 5 5 5 3 2 3 4 3 4 4 4 3 5 4 4 5 4 3 4 5 4 2 3 4 3 3 3
6 5 5 7 7 7 7 7 6 6 6 6 6 6 7 6 5 4 5 4 3 3 3 3 4 4 4 3 5 5 4 5 4 4 5 5 3 5 4 4 4 4 2
4 4 6 6 7 6 6 7 6 6 6 6 6 5 6 7 6 5 4 4 5 4 5 5 5 4 4 4 4 5 4 4 4 3 5 4 5 5 4 5 5 3 4
6 5 6 7 6 6 6 7 6 5 6 6 6 6 6 6 6 6 5 5 4 5 4 5 5 4 4 3 4 5 5 5 5 5 5 4 5 5 5 5 5 6 6
6 7 6 7 6 6 5 5 6 5 5 6 6 6 6 6 6 6 6 5 5 5 5 5 5 5 5 3 5 5 5 6 6 5 5 4 5 8 6 5 5 7 6
7 6 5 7 7 8 7 6 6 5 5 6 7 6 5 5 5 6 5 3 3 4 5 5 5 6 4 8 6 6 5 5 5 5 5 4 7 8 10 10 8 5 7
7 8 8 8 7 7 7 7 6 5 6 6 4 5 4 4 4 3 4 6 4 3 4 5 6 5 4 7 9 8 5 5 2 3 3 4 3 6 6 8 9 8 6
7 7 7 6 7 5 5 5 4 5 6 5 4 3 4 4 2 3 6 6 4 5 3 3 3 5 4 7 9 9 6 4 4 4 4 4 4 4 6 6 6 6 5
7 7 7 5 6 7 6 6 5 5 5 4 3 4 5 6 7 7 6 5 5 3 4 4 5 5 5 5 10 9 5 5 5 3 3 5 5 5 7 7 7 6 5
8 9 8 5 6 5 6 6 4 4 5 5 5 3 3 3 5 6 6 3 3 5 4 6 4 5 5 7 11 8 5 5 4 3 3 6 6 7 6 7 7 7 3
9 7 8 7 7 5 7 7 5 4 3 5 4 4 3 1 2 2 2 4 4 4 4 6 7 6 6 5 10 11 6 6 4 4 4 4 7 9 9 7 5 5 7
7 7 10 11 7 6 8 7 5 2 6 5 4 3 3 4 2 2 1 3 5 2 5 5 6 6 6 8 8 11 9 8 6 6 4 5 8 7 8 7 7 8 6
9 3 12 14 8 8 7 8 5 5 6 5 3 4 5 4 4 3 1 2 3 3 4 4 5 5 5 5 8 9 10 12 7 4 7 8 9 6 5 6 7 9 4
2 3 4 14 11 7 6 6 5 5 5 5 4 3 4 3 1 2 2 2 3 4 6 6 6 5 5 6 5 5 5 8 6 6 5 5 5 3 3 2 3 3 4
3 5 6 7 9 7 6 5 5 6 5 5 5 4 3 3 2 0 2 2 2 1 3 3 3 6 7 9 11 10 7 5 6 6 3 3 3 3 3 2 3 2 2
7 5 10 7 6 5 6 6 6 7 7 5 4 3 2 2 3 3 3 9 8 6 7 9 5 5 5 3 12 15 13 10 14 3 4 5 5 6 5 5 4 3 5
Wind_Direction
159 131 133 62 140 151 184 185 166 161 129 81 56 40 350 54 97 121 280 270 236 221 211 231 227 221 214 216 197 197 226 238 191 165 322 306 296 2 324 260 218 227 228
152 141 158 159 200 156 191 180 170 167 190 119 95 155 131 305 94 185 217 231 249 240 218 218 233 225 205 211 199 186 190 210 170 136 130 358 354 38 20 10 54 177 208
164 150 185 168 177 175 180 177 183 174 181 137 116 60 45 50 64 170 271 247 227 241 229 219 208 203 177 176 198 182 178 171 190 209 149 128 220 95 350 28 26 42 55
140 137 176 203 187 193 182 187 173 165 180 160 158 165 194 174 222 170 170 339 254 205 178 174 179 166 170 167 194 182 169 155 197 213 219 129 146 155 107 34 10 49 46
125 183 189 237 238 186 185 188 170 170 165 168 193 195 176 229 154 124 104 73 16 4 43 210 192 180 187 196 194 189 186 184 176 186 153 155 110 95 132 154 128 38 19
170 239 232 220 209 183 191 185 177 185 172 177 203 233 168 174 152 140 117 119 69 19 7 0 337 235 215 190 183 159 170 167 182 186 188 167 164 178 158 137 109 112 53
207 191 198 206 196 182 190 182 195 184 190 182 195 219 188 157 169 167 150 147 78 30 320 345 344 343 122 111 115 113 106 132 166 208 201 191 193 149 133 125 108 150 115
195 199 196 192 195 178 189 187 181 193 176 179 179 147 138 183 188 162 163 146 158 210 293 277 306 84 82 75 99 95 90 96 78 70 198 184 197 169 153 148 147 125 97
175 189 188 186 189 183 187 196 176 185 193 178 154 115 122 179 155 145 153 163 152 175 228 300 100 109 94 82 85 81 88 98 76 70 83 114 176 177 171 146 159 142 138
177 186 196 187 186 190 175 173 187 183 184 177 150 150 139 174 156 149 157 185 172 135 150 134 115 106 109 100 79 65 48 71 41 26 66 48 47 142 162 156 154 125 135
184 203 196 185 181 186 157 172 169 169 162 163 160 137 146 160 161 168 173 188 155 169 149 153 157 142 121 104 92 71 55 60 57 44 62 50 50 67 110 114 95 103 98
193 188 197 184 162 186 166 166 146 168 176 155 162 161 147 155 163 181 189 185 189 213 195 168 142 131 107 76 84 82 74 70 45 35 69 54 55 59 64 89 97 117 98
129 247 166 194 180 184 156 143 160 173 163 154 160 165 156 153 171 187 196 187 145 146 144 137 144 143 111 93 81 91 90 78 69 57 77 76 90 77 75 77 89 94 103
206 199 171 196 162 167 160 157 161 171 157 158 165 167 173 171 181 186 181 177 166 157 154 139 147 156 132 129 116 102 92 74 54 42 59 65 96 111 109 99 108 114 117
254 235 187 177 149 146 153 154 150 174 166 163 165 192 184 181 184 178 186 180 182 173 158 143 132 143 148 158 129 111 109 97 79 53 57 58 101 117 127 129 132 127 127
265 222 168 146 151 161 175 171 165 181 173 179 187 184 184 184 199 189 178 170 246 173 156 171 167 163 163 164 150 129 112 100 105 93 69 61 67 80 94 108 113 117 138
212 189 171 168 156 177 171 181 182 152 189 192 205 187 204 202 197 183 129 122 132 309 266 178 178 173 176 189 165 149 139 138 144 100 79 72 63 86 97 106 121 125 112
176 186 160 172 185 179 153 153 164 177 176 198 204 200 224 204 138 154 158 136 196 157 215 260 219 167 199 186 161 142 149 155 193 158 148 124 115 136 131 116 96 86 77
166 176 175 175 163 162 157 151 146 154 141 176 186 198 173 146 161 163 167 145 140 133 162 174 222 202 200 191 161 137 140 144 155 151 150 159 161 174 143 118 110 92 61
154 153 151 138 145 155 132 126 126 125 145 157 179 145 186 175 182 178 157 135 147 144 167 168 209 253 219 183 167 147 140 148 158 159 196 203 181 168 160 135 137 121 147
130 114 124 122 129 129 106 109 130 136 156 120 99 117 104 152 235 196 149 144 185 191 177 180 194 208 228 219 178 165 164 168 171 184 194 218 204 186 173 151 150 162 153
89 109 103 98 94 103 106 106 96 123 97 99 126 122 120 137 250 194 257 181 180 194 207 191 176 210 216 217 219 187 185 168 170 195 198 214 205 186 188 175 172 148 133
124 113 121 111 87 89 102 130 147 122 113 124 159 120 96 69 34 27 282 244 201 194 208 229 192 197 201 205 227 230 215 190 186 183 195 189 192 188 177 225 182 159 157
358 93 106 110 107 94 126 125 127 126 138 158 155 140 122 112 48 27 357 329 301 222 219 216 222 212 203 192 192 210 227 209 191 159 161 179 171 176 172 155 172 173 181
105 230 130 122 110 134 127 128 146 144 156 162 170 153 151 168 163 266 254 267 269 241 306 294 261 222 208 209 199 187 210 204 184 127 120 147 161 185 201 200 189 186 193
169 187 98 110 120 135 150 171 181 180 161 176 165 155 166 194 201 224 255 226 222 245 250 261 241 292 257 251 199 189 208 174 150 135 174 187 190 194 194 194 197 203 206